M I D A S
Marine Information and Data Acquisition System
Tripno 2302 of the Zeeleeuw from 2012-01-24 06:02:30 to 2012-01-24 13:43:15
Back to CruiseResearch ActivitiesStationsMapUnderway DataData graphs

EquipmentUnitsComment
TimeDGPSUTC
LatitudeDGPSDM.mWGS84
LongitudeDGPSDM.mWGS84
TemperatureSBE03/SBE38deg celciusITS90
ConductivitySBE21S/mITS90
SalinitySBE21 Practical Salinity Units
ChlorophylAChelsea fluorimeterg/lCalibrated in Aceton
Missing or incorrect values are displayed as -999
Sea surface data collected by the RV Zeeleeuw from 2012-01-24 05:52:43 to 2012-01-24 15:00:08
                                                                                    Next 1000 lines
Time Latitude Longitude Temperature Conductivity Salinity ChlorophylA
2012-01-24 05:52:52 51°13.69 2°56.038 -999 -999 -999 -999
2012-01-24 05:52:58 51°13.639 2°56.016 -999 -999 -999 -999
2012-01-24 05:53:03 51°13.637 2°56.016 -999 -999 -999 -999
2012-01-24 05:53:08 51°13.636 2°56.016 -999 -999 -999 -999
2012-01-24 05:53:13 51°13.636 2°56.016 -999 -999 -999 -999
2012-01-24 05:53:18 51°13.636 2°56.016 -999 -999 -999 -999
2012-01-24 05:53:23 51°13.636 2°56.017 -999 -999 -999 -999
2012-01-24 05:53:28 51°13.635 2°56.017 -999 -999 -999 -999
2012-01-24 05:53:33 51°13.635 2°56.018 -999 -999 -999 -999
2012-01-24 05:53:38 51°13.635 2°56.018 -999 -999 -999 -999
2012-01-24 05:53:43 51°13.635 2°56.018 -999 -999 -999 -999
2012-01-24 05:53:48 51°13.635 2°56.018 -999 -999 -999 -999
2012-01-24 05:53:53 51°13.635 2°56.018 -999 -999 -999 -999
2012-01-24 05:53:58 51°13.634 2°56.018 -999 -999 -999 -999
2012-01-24 05:54:02 51°13.634 2°56.018 -999 -999 -999 -999
2012-01-24 05:54:08 51°13.634 2°56.017 -999 -999 -999 -999
2012-01-24 05:54:13 51°13.634 2°56.017 -999 -999 -999 -999
2012-01-24 05:54:18 51°13.634 2°56.017 -999 -999 -999 -999
2012-01-24 05:54:22 51°13.634 2°56.017 -999 -999 -999 -999
2012-01-24 05:54:28 51°13.634 2°56.017 -999 -999 -999 -999
2012-01-24 05:54:34 51°13.635 2°56.017 -999 -999 -999 -999
2012-01-24 05:54:38 51°13.635 2°56.017 -999 -999 -999 -999
2012-01-24 05:54:43 51°13.635 2°56.017 -999 -999 -999 -999
2012-01-24 05:54:48 51°13.635 2°56.017 -999 -999 -999 -999
2012-01-24 05:54:53 51°13.636 2°56.017 -999 -999 -999 -999
2012-01-24 05:54:58 51°13.636 2°56.017 -999 -999 -999 -999
2012-01-24 05:55:03 51°13.636 2°56.017 -999 -999 -999 -999
2012-01-24 05:55:08 51°13.636 2°56.017 -999 -999 -999 -999
2012-01-24 05:55:13 51°13.636 2°56.017 -999 -999 -999 -999
2012-01-24 05:55:18 51°13.636 2°56.016 -999 -999 -999 -999
2012-01-24 05:55:24 51°13.637 2°56.016 -999 -999 -999 -999
2012-01-24 05:55:28 51°13.637 2°56.016 -999 -999 -999 -999
2012-01-24 05:55:33 51°13.637 2°56.017 -999 -999 -999 -999
2012-01-24 05:55:38 51°13.637 2°56.017 -999 -999 -999 -999
2012-01-24 05:55:43 51°13.637 2°56.017 -999 -999 -999 -999
2012-01-24 05:55:48 51°13.637 2°56.017 -999 -999 -999 -999
2012-01-24 05:55:53 51°13.637 2°56.017 -999 -999 -999 -999
2012-01-24 05:55:58 51°13.637 2°56.017 -999 -999 -999 -999
2012-01-24 05:56:03 51°13.637 2°56.017 -999 -999 -999 -999
2012-01-24 05:56:08 51°13.637 2°56.017 -999 -999 -999 -999
2012-01-24 05:56:13 51°13.638 2°56.017 -999 -999 -999 -999
2012-01-24 05:56:18 51°13.638 2°56.017 -999 -999 -999 -999
2012-01-24 05:56:23 51°13.638 2°56.017 -999 -999 -999 -999
2012-01-24 05:56:28 51°13.638 2°56.018 -999 -999 -999 -999
2012-01-24 05:56:33 51°13.638 2°56.018 -999 -999 -999 -999
2012-01-24 05:56:38 51°13.638 2°56.018 -999 -999 -999 -999
2012-01-24 05:56:42 51°13.638 2°56.018 -999 -999 -999 -999
2012-01-24 05:56:47 51°13.638 2°56.018 -999 -999 -999 -999
2012-01-24 05:56:53 51°13.638 2°56.018 -999 -999 -999 -999
2012-01-24 05:56:58 51°13.638 2°56.018 -999 -999 -999 -999
2012-01-24 05:57:02 51°13.638 2°56.018 -999 -999 -999 -999
2012-01-24 05:57:07 51°13.637 2°56.018 -999 -999 -999 -999
2012-01-24 05:57:12 51°13.637 2°56.018 -999 -999 -999 -999
2012-01-24 05:57:17 51°13.637 2°56.018 -999 -999 -999 -999
2012-01-24 05:57:22 51°13.637 2°56.018 -999 -999 -999 -999
2012-01-24 05:57:26 51°13.637 2°56.018 -999 -999 -999 -999
2012-01-24 05:57:31 51°13.637 2°56.018 -999 -999 -999 -999
2012-01-24 05:57:36 51°13.637 2°56.018 -999 -999 -999 -999
2012-01-24 05:57:41 51°13.637 2°56.018 -999 -999 -999 -999
2012-01-24 05:57:46 51°13.637 2°56.018 -999 -999 -999 -999
2012-01-24 05:57:50 51°13.637 2°56.018 -999 -999 -999 -999
2012-01-24 05:57:56 51°13.637 2°56.018 -999 -999 -999 -999
2012-01-24 05:58:01 51°13.637 2°56.018 -999 -999 -999 -999
2012-01-24 05:58:06 51°13.637 2°56.019 -999 -999 -999 -999
2012-01-24 05:58:10 51°13.637 2°56.019 -999 -999 -999 -999
2012-01-24 05:58:15 51°13.638 2°56.019 -999 -999 -999 -999
2012-01-24 05:58:20 51°13.638 2°56.019 -999 -999 -999 -999
2012-01-24 05:58:25 51°13.638 2°56.019 -999 -999 -999 -999
2012-01-24 05:58:30 51°13.638 2°56.019 -999 -999 -999 -999
2012-01-24 05:58:35 51°13.638 2°56.019 -999 -999 -999 -999
2012-01-24 05:58:40 51°13.638 2°56.018 -999 -999 -999 -999
2012-01-24 05:58:44 51°13.638 2°56.018 -999 -999 -999 -999
2012-01-24 05:58:49 51°13.638 2°56.018 -999 -999 -999 -999
2012-01-24 05:58:54 51°13.638 2°56.018 -999 -999 -999 -999
2012-01-24 05:59:00 51°13.638 2°56.018 -999 -999 -999 -999
2012-01-24 05:59:06 51°13.638 2°56.018 -999 -999 -999 -999
2012-01-24 05:59:12 51°13.638 2°56.018 -999 -999 -999 -999
2012-01-24 05:59:18 51°13.638 2°56.018 -999 -999 -999 -999
2012-01-24 05:59:23 51°13.638 2°56.018 -999 -999 -999 -999
2012-01-24 05:59:27 51°13.638 2°56.018 -999 -999 -999 -999
2012-01-24 05:59:32 51°13.638 2°56.018 -999 -999 -999 -999
2012-01-24 05:59:37 51°13.638 2°56.018 -999 -999 -999 -999
2012-01-24 05:59:43 51°13.638 2°56.018 -999 -999 -999 -999
2012-01-24 05:59:48 51°13.638 2°56.018 -999 -999 -999 -999
2012-01-24 05:59:53 51°13.638 2°56.018 -999 -999 -999 -999
2012-01-24 05:59:58 51°13.638 2°56.018 -999 -999 -999 -999
2012-01-24 06:00:04 51°13.638 2°56.018 -999 -999 -999 -999
2012-01-24 06:00:08 51°13.638 2°56.018 -999 -999 -999 -999
2012-01-24 06:00:13 51°13.638 2°56.018 -999 -999 -999 -999
2012-01-24 06:00:18 51°13.638 2°56.018 -999 -999 -999 -999
2012-01-24 06:00:23 51°13.638 2°56.018 -999 -999 -999 -999
2012-01-24 06:00:28 51°13.638 2°56.018 -999 -999 -999 -999
2012-01-24 06:00:33 51°13.639 2°56.018 -999 -999 -999 -999
2012-01-24 06:00:38 51°13.639 2°56.018 -999 -999 -999 -999
2012-01-24 06:00:43 51°13.638 2°56.018 -999 -999 -999 -999
2012-01-24 06:00:48 51°13.638 2°56.018 -999 -999 -999 -999
2012-01-24 06:00:54 51°13.638 2°56.018 -999 -999 -999 -999
2012-01-24 06:00:58 51°13.638 2°56.018 -999 -999 -999 -999
2012-01-24 06:01:03 51°13.638 2°56.018 -999 -999 -999 -999
2012-01-24 06:01:08 51°13.638 2°56.018 -999 -999 -999 -999
2012-01-24 06:01:14 51°13.638 2°56.018 -999 -999 -999 -999
2012-01-24 06:01:18 51°13.638 2°56.018 -999 -999 -999 -999
2012-01-24 06:01:23 51°13.638 2°56.018 -999 -999 -999 -999
2012-01-24 06:01:28 51°13.638 2°56.018 -999 -999 -999 -999
2012-01-24 06:01:33 51°13.638 2°56.018 -999 -999 -999 -999
2012-01-24 06:01:38 51°13.637 2°56.018 -999 -999 -999 -999
2012-01-24 06:01:43 51°13.637 2°56.018 -999 -999 -999 -999
2012-01-24 06:01:48 51°13.637 2°56.018 -999 -999 -999 -999
2012-01-24 06:01:53 51°13.636 2°56.018 -999 -999 -999 -999
2012-01-24 06:01:58 51°13.636 2°56.017 -999 -999 -999 -999
2012-01-24 06:02:02 51°13.636 2°56.017 -999 -999 -999 -999
2012-01-24 06:02:07 51°13.636 2°56.017 -999 -999 -999 -999
2012-01-24 06:02:12 51°13.636 2°56.017 -999 -999 -999 -999
2012-01-24 06:02:17 51°13.636 2°56.016 -999 -999 -999 -999
2012-01-24 06:02:22 51°13.636 2°56.014 -999 -999 -999 -999
2012-01-24 06:02:26 51°13.637 2°56.012 -999 -999 -999 -999
2012-01-24 06:02:31 51°13.638 2°56.008 -999 -999 -999 -999
2012-01-24 06:02:36 51°13.638 2°56.004 -999 -999 -999 -999
2012-01-24 06:02:41 51°13.639 2°55.998 -999 -999 -999 -999
2012-01-24 06:02:46 51°13.64 2°55.992 -999 -999 -999 -999
2012-01-24 06:02:52 51°13.642 2°55.984 -999 -999 -999 -999
2012-01-24 06:02:58 51°13.644 2°55.976 -999 -999 -999 -999
2012-01-24 06:03:03 51°13.646 2°55.968 -999 -999 -999 -999
2012-01-24 06:03:08 51°13.647 2°55.96 -999 -999 -999 -999
2012-01-24 06:03:13 51°13.649 2°55.951 -999 -999 -999 -999
2012-01-24 06:03:18 51°13.651 2°55.943 -999 -999 -999 -999
2012-01-24 06:03:23 51°13.653 2°55.934 -999 -999 -999 -999
2012-01-24 06:03:28 51°13.655 2°55.925 -999 -999 -999 -999
2012-01-24 06:03:33 51°13.657 2°55.916 -999 -999 -999 -999
2012-01-24 06:03:38 51°13.659 2°55.907 -999 -999 -999 -999
2012-01-24 06:03:43 51°13.661 2°55.898 -999 -999 -999 -999
2012-01-24 06:03:48 51°13.664 2°55.888 -999 -999 -999 -999
2012-01-24 06:03:53 51°13.667 2°55.879 -999 -999 -999 -999
2012-01-24 06:03:58 51°13.67 2°55.869 -999 -999 -999 -999
2012-01-24 06:04:03 51°13.673 2°55.86 -999 -999 -999 -999
2012-01-24 06:04:08 51°13.677 2°55.85 -999 -999 -999 -999
2012-01-24 06:04:13 51°13.68 2°55.841 -999 -999 -999 -999
2012-01-24 06:04:18 51°13.684 2°55.832 -999 -999 -999 -999
2012-01-24 06:04:23 51°13.688 2°55.822 -999 -999 -999 -999
2012-01-24 06:04:28 51°13.693 2°55.813 -999 -999 -999 -999
2012-01-24 06:04:33 51°13.697 2°55.804 -999 -999 -999 -999
2012-01-24 06:04:38 51°13.702 2°55.794 -999 -999 -999 -999
2012-01-24 06:04:43 51°13.706 2°55.785 -999 -999 -999 -999
2012-01-24 06:04:48 51°13.711 2°55.776 -999 -999 -999 -999
2012-01-24 06:04:53 51°13.716 2°55.767 -999 -999 -999 -999
2012-01-24 06:04:58 51°13.722 2°55.758 -999 -999 -999 -999
2012-01-24 06:05:03 51°13.727 2°55.75 -999 -999 -999 -999
2012-01-24 06:05:08 51°13.732 2°55.741 -999 -999 -999 -999
2012-01-24 06:05:13 51°13.738 2°55.733 -999 -999 -999 -999
2012-01-24 06:05:14 51°13.739 2°55.731 -999 -999 -999 -999
2012-01-24 06:05:14 51°13.739 2°55.731 -999 -999 -999 -999
2012-01-24 06:05:28 51°13.755 2°55.711 -999 -999 -999 -999
2012-01-24 06:05:33 51°13.761 2°55.703 -999 -999 -999 -999
2012-01-24 06:05:36 51°13.765 2°55.699 -999 -999 -999 -999
2012-01-24 06:05:36 51°13.765 2°55.699 -999 -999 -999 -999
2012-01-24 06:05:36 51°13.765 2°55.699 -999 -999 -999 -999
2012-01-24 06:05:36 51°13.765 2°55.699 -999 -999 -999 -999
2012-01-24 06:05:36 51°13.765 2°55.699 -999 -999 -999 -999
2012-01-24 06:06:03 51°13.797 2°55.657 -999 -999 -999 -999
2012-01-24 06:06:08 51°13.804 2°55.652 -999 -999 -999 -999
2012-01-24 06:06:13 51°13.811 2°55.647 -999 -999 -999 -999
2012-01-24 06:06:18 51°13.817 2°55.642 -999 -999 -999 -999
2012-01-24 06:06:23 51°13.824 2°55.637 -999 -999 -999 -999
2012-01-24 06:06:28 51°13.831 2°55.632 -999 -999 -999 -999
2012-01-24 06:06:33 51°13.838 2°55.628 -999 -999 -999 -999
2012-01-24 06:06:38 51°13.845 2°55.625 -999 -999 -999 -999
2012-01-24 06:06:43 51°13.852 2°55.623 -999 -999 -999 -999
2012-01-24 06:06:48 51°13.859 2°55.621 -999 -999 -999 -999
2012-01-24 06:06:53 51°13.867 2°55.62 -999 -999 -999 -999
2012-01-24 06:06:58 51°13.874 2°55.619 -999 -999 -999 -999
2012-01-24 06:07:03 51°13.881 2°55.618 -999 -999 -999 -999
2012-01-24 06:07:08 51°13.888 2°55.618 -999 -999 -999 -999
2012-01-24 06:07:13 51°13.896 2°55.619 -999 -999 -999 -999
2012-01-24 06:07:18 51°13.903 2°55.619 -999 -999 -999 -999
2012-01-24 06:07:23 51°13.91 2°55.618 -999 -999 -999 -999
2012-01-24 06:07:28 51°13.916 2°55.619 -999 -999 -999 -999
2012-01-24 06:07:33 51°13.921 2°55.621 -999 -999 -999 -999
2012-01-24 06:07:38 51°13.926 2°55.622 -999 -999 -999 -999
2012-01-24 06:07:43 51°13.932 2°55.624 -999 -999 -999 -999
2012-01-24 06:07:48 51°13.937 2°55.626 -999 -999 -999 -999
2012-01-24 06:07:53 51°13.942 2°55.629 -999 -999 -999 -999
2012-01-24 06:07:58 51°13.946 2°55.631 -999 -999 -999 -999
2012-01-24 06:08:03 51°13.951 2°55.633 -999 -999 -999 -999
2012-01-24 06:08:08 51°13.954 2°55.636 -999 -999 -999 -999
2012-01-24 06:08:13 51°13.958 2°55.639 -999 -999 -999 -999
2012-01-24 06:08:18 51°13.962 2°55.641 -999 -999 -999 -999
2012-01-24 06:08:23 51°13.964 2°55.644 -999 -999 -999 -999
2012-01-24 06:08:28 51°13.967 2°55.646 -999 -999 -999 -999
2012-01-24 06:08:33 51°13.969 2°55.647 -999 -999 -999 -999
2012-01-24 06:08:38 51°13.97 2°55.648 -999 -999 -999 -999
2012-01-24 06:08:43 51°13.971 2°55.649 -999 -999 -999 -999
2012-01-24 06:08:48 51°13.972 2°55.649 -999 -999 -999 -999
2012-01-24 06:08:53 51°13.972 2°55.648 -999 -999 -999 -999
2012-01-24 06:08:58 51°13.972 2°55.645 -999 -999 -999 -999
2012-01-24 06:09:03 51°13.971 2°55.642 -999 -999 -999 -999
2012-01-24 06:09:08 51°13.971 2°55.637 -999 -999 -999 -999
2012-01-24 06:09:13 51°13.971 2°55.63 -999 -999 -999 -999
2012-01-24 06:09:18 51°13.971 2°55.623 -999 -999 -999 -999
2012-01-24 06:09:23 51°13.972 2°55.615 -999 -999 -999 -999
2012-01-24 06:09:28 51°13.974 2°55.607 -999 -999 -999 -999
2012-01-24 06:09:33 51°13.977 2°55.598 -999 -999 -999 -999
2012-01-24 06:09:38 51°13.981 2°55.59 -999 -999 -999 -999
2012-01-24 06:09:43 51°13.986 2°55.582 -999 -999 -999 -999
2012-01-24 06:09:48 51°13.992 2°55.574 -999 -999 -999 -999
2012-01-24 06:09:53 51°13.998 2°55.565 -999 -999 -999 -999
2012-01-24 06:09:58 51°14.005 2°55.557 -999 -999 -999 -999
2012-01-24 06:10:02 51°14.011 2°55.55 -999 -999 -999 -999
2012-01-24 06:10:07 51°14.019 2°55.541 -999 -999 -999 -999
2012-01-24 06:10:12 51°14.027 2°55.532 -999 -999 -999 -999
2012-01-24 06:10:17 51°14.036 2°55.523 -999 -999 -999 -999
2012-01-24 06:10:22 51°14.044 2°55.514 -999 -999 -999 -999
2012-01-24 06:10:27 51°14.054 2°55.505 -999 -999 -999 -999
2012-01-24 06:10:32 51°14.063 2°55.495 -999 -999 -999 -999
2012-01-24 06:10:37 51°14.073 2°55.485 -999 -999 -999 -999
2012-01-24 06:10:42 51°14.082 2°55.476 -999 -999 -999 -999
2012-01-24 06:10:46 51°14.09 2°55.467 -999 -999 -999 -999
2012-01-24 06:10:51 51°14.1 2°55.456 -999 -999 -999 -999
2012-01-24 06:10:56 51°14.11 2°55.446 -999 -999 -999 -999
2012-01-24 06:11:01 51°14.12 2°55.435 -999 -999 -999 -999
2012-01-24 06:11:06 51°14.131 2°55.425 -999 -999 -999 -999
2012-01-24 06:11:10 51°14.139 2°55.417 -999 -999 -999 -999
2012-01-24 06:11:15 51°14.15 2°55.406 -999 -999 -999 -999
2012-01-24 06:11:20 51°14.161 2°55.395 -999 -999 -999 -999
2012-01-24 06:11:25 51°14.172 2°55.384 -999 -999 -999 -999
2012-01-24 06:11:30 51°14.183 2°55.374 -999 -999 -999 -999
2012-01-24 06:11:35 51°14.194 2°55.363 -999 -999 -999 -999
2012-01-24 06:11:40 51°14.205 2°55.352 -999 -999 -999 -999
2012-01-24 06:11:45 51°14.217 2°55.341 -999 -999 -999 -999
2012-01-24 06:11:50 51°14.228 2°55.33 -999 -999 -999 -999
2012-01-24 06:11:55 51°14.239 2°55.319 -999 -999 -999 -999
2012-01-24 06:11:59 51°14.248 2°55.31 -999 -999 -999 -999
2012-01-24 06:12:05 51°14.262 2°55.296 -999 -999 -999 -999
2012-01-24 06:12:10 51°14.273 2°55.285 -999 -999 -999 -999
2012-01-24 06:12:14 51°14.282 2°55.275 -999 -999 -999 -999
2012-01-24 06:12:20 51°14.295 2°55.261 -999 -999 -999 -999
2012-01-24 06:12:25 51°14.307 2°55.248 -999 -999 -999 -999
2012-01-24 06:12:30 51°14.318 2°55.236 -999 -999 -999 -999
2012-01-24 06:12:35 51°14.329 2°55.224 -999 -999 -999 -999
2012-01-24 06:12:41 51°14.343 2°55.209 -999 -999 -999 -999
2012-01-24 06:12:46 51°14.355 2°55.197 -999 -999 -999 -999
2012-01-24 06:12:50 51°14.364 2°55.187 -999 -999 -999 -999
2012-01-24 06:12:56 51°14.378 2°55.172 -999 -999 -999 -999
2012-01-24 06:13:01 51°14.39 2°55.16 -999 -999 -999 -999
2012-01-24 06:13:06 51°14.402 2°55.148 -999 -999 -999 -999
2012-01-24 06:13:10 51°14.411 2°55.139 -999 -999 -999 -999
2012-01-24 06:13:16 51°14.426 2°55.124 -999 -999 -999 -999
2012-01-24 06:13:21 51°14.438 2°55.112 -999 -999 -999 -999
2012-01-24 06:13:26 51°14.451 2°55.099 -999 -999 -999 -999
2012-01-24 06:13:30 51°14.46 2°55.089 -999 -999 -999 -999
2012-01-24 06:13:35 51°14.473 2°55.076 -999 -999 -999 -999
2012-01-24 06:13:41 51°14.488 2°55.06 -999 -999 -999 -999
2012-01-24 06:13:46 51°14.501 2°55.047 -999 -999 -999 -999
2012-01-24 06:13:50 51°14.511 2°55.037 -999 -999 -999 -999
2012-01-24 06:13:55 51°14.525 2°55.023 -999 -999 -999 -999
2012-01-24 06:14:00 51°14.538 2°55.009 -999 -999 -999 -999
2012-01-24 06:14:05 51°14.551 2°54.994 -999 -999 -999 -999
2012-01-24 06:14:10 51°14.565 2°54.981 -999 -999 -999 -999
2012-01-24 06:14:14 51°14.576 2°54.971 -999 -999 -999 -999
2012-01-24 06:14:20 51°14.593 2°54.956 -999 -999 -999 -999
2012-01-24 06:14:25 51°14.607 2°54.942 -999 -999 -999 -999
2012-01-24 06:14:30 51°14.622 2°54.93 -999 -999 -999 -999
2012-01-24 06:14:34 51°14.633 2°54.92 -999 -999 -999 -999
2012-01-24 06:14:40 51°14.651 2°54.908 -999 -999 -999 -999
2012-01-24 06:14:45 51°14.666 2°54.898 -999 -999 -999 -999
2012-01-24 06:14:50 51°14.681 2°54.889 -999 -999 -999 -999
2012-01-24 06:14:55 51°14.697 2°54.88 -999 -999 -999 -999
2012-01-24 06:14:59 51°14.709 2°54.873 -999 -999 -999 -999
2012-01-24 06:15:05 51°14.728 2°54.864 -999 -999 -999 -999
2012-01-24 06:15:10 51°14.743 2°54.857 -999 -999 -999 -999
2012-01-24 06:15:14 51°14.756 2°54.851 -999 -999 -999 -999
2012-01-24 06:15:20 51°14.775 2°54.843 -999 -999 -999 -999
2012-01-24 06:15:25 51°14.79 2°54.836 -999 -999 -999 -999
2012-01-24 06:15:30 51°14.805 2°54.829 -999 -999 -999 -999
2012-01-24 06:15:34 51°14.818 2°54.823 -999 -999 -999 -999
2012-01-24 06:15:40 51°14.836 2°54.813 -999 -999 -999 -999
2012-01-24 06:15:45 51°14.852 2°54.807 -999 -999 -999 -999
2012-01-24 06:15:50 51°14.868 2°54.801 -999 -999 -999 -999
2012-01-24 06:15:54 51°14.88 2°54.798 -999 -999 -999 -999
2012-01-24 06:16:00 51°14.898 2°54.794 -999 -999 -999 -999
2012-01-24 06:16:05 51°14.914 2°54.79 -999 -999 -999 -999
2012-01-24 06:16:10 51°14.929 2°54.786 -999 -999 -999 -999
2012-01-24 06:16:14 51°14.942 2°54.782 -999 -999 -999 -999
2012-01-24 06:16:20 51°14.96 2°54.774 -999 -999 -999 -999
2012-01-24 06:16:25 51°14.976 2°54.768 -999 -999 -999 -999
2012-01-24 06:16:30 51°14.991 2°54.762 -999 -999 -999 -999
2012-01-24 06:16:34 51°15.004 2°54.757 -999 -999 -999 -999
2012-01-24 06:16:40 51°15.022 2°54.747 -999 -999 -999 -999
2012-01-24 06:16:45 51°15.037 2°54.739 -999 -999 -999 -999
2012-01-24 06:16:50 51°15.051 2°54.729 -999 -999 -999 -999
2012-01-24 06:16:54 51°15.063 2°54.722 -999 -999 -999 -999
2012-01-24 06:17:00 51°15.081 2°54.711 -999 -999 -999 -999
2012-01-24 06:17:05 51°15.096 2°54.704 -999 -999 -999 -999
2012-01-24 06:17:10 51°15.111 2°54.696 -999 -999 -999 -999
2012-01-24 06:17:15 51°15.126 2°54.688 -999 -999 -999 -999
2012-01-24 06:17:20 51°15.141 2°54.68 -999 -999 -999 -999
2012-01-24 06:17:25 51°15.156 2°54.671 -999 -999 -999 -999
2012-01-24 06:17:30 51°15.171 2°54.662 -999 -999 -999 -999
2012-01-24 06:17:35 51°15.186 2°54.652 -999 -999 -999 -999
2012-01-24 06:17:40 51°15.201 2°54.642 -999 -999 -999 -999
2012-01-24 06:17:45 51°15.215 2°54.631 -999 -999 -999 -999
2012-01-24 06:17:50 51°15.23 2°54.619 -999 -999 -999 -999
2012-01-24 06:17:54 51°15.241 2°54.608 -999 -999 -999 -999
2012-01-24 06:18:00 51°15.258 2°54.591 -999 -999 -999 -999
2012-01-24 06:18:05 51°15.272 2°54.577 -999 -999 -999 -999
2012-01-24 06:18:10 51°15.286 2°54.564 -999 -999 -999 -999
2012-01-24 06:18:15 51°15.3 2°54.55 -999 -999 -999 -999
2012-01-24 06:18:20 51°15.315 2°54.536 -999 -999 -999 -999
2012-01-24 06:18:25 51°15.329 2°54.521 -999 -999 -999 -999
2012-01-24 06:18:30 51°15.342 2°54.506 -999 -999 -999 -999
2012-01-24 06:18:34 51°15.354 2°54.494 -999 -999 -999 -999
2012-01-24 06:18:40 51°15.37 2°54.476 -999 -999 -999 -999
2012-01-24 06:18:45 51°15.384 2°54.461 -999 -999 -999 -999
2012-01-24 06:18:50 51°15.398 2°54.446 -999 -999 -999 -999
2012-01-24 06:18:54 51°15.409 2°54.434 -999 -999 -999 -999
2012-01-24 06:19:00 51°15.426 2°54.416 -999 -999 -999 -999
2012-01-24 06:19:05 51°15.44 2°54.401 -999 -999 -999 -999
2012-01-24 06:19:10 51°15.454 2°54.387 -999 -999 -999 -999
2012-01-24 06:19:14 51°15.465 2°54.374 -999 -999 -999 -999
2012-01-24 06:19:20 51°15.482 2°54.357 -999 -999 -999 -999
2012-01-24 06:19:25 51°15.496 2°54.342 -999 -999 -999 -999
2012-01-24 06:19:30 51°15.511 2°54.327 -999 -999 -999 -999
2012-01-24 06:19:34 51°15.522 2°54.315 -999 -999 -999 -999
2012-01-24 06:19:40 51°15.539 2°54.298 -999 -999 -999 -999
2012-01-24 06:19:45 51°15.554 2°54.285 -999 -999 -999 -999
2012-01-24 06:19:50 51°15.568 2°54.272 -999 -999 -999 -999
2012-01-24 06:19:54 51°15.58 2°54.263 -999 -999 -999 -999
2012-01-24 06:20:00 51°15.598 2°54.249 -999 -999 -999 -999
2012-01-24 06:20:05 51°15.613 2°54.236 -999 -999 -999 -999
2012-01-24 06:20:10 51°15.627 2°54.223 -999 -999 -999 -999
2012-01-24 06:20:14 51°15.639 2°54.213 -999 -999 -999 -999
2012-01-24 06:20:20 51°15.656 2°54.196 -999 -999 -999 -999
2012-01-24 06:20:25 51°15.67 2°54.181 -999 -999 -999 -999
2012-01-24 06:20:30 51°15.684 2°54.166 -999 -999 -999 -999
2012-01-24 06:20:34 51°15.695 2°54.153 -999 -999 -999 -999
2012-01-24 06:20:40 51°15.711 2°54.134 -999 -999 -999 -999
2012-01-24 06:20:45 51°15.725 2°54.117 -999 -999 -999 -999
2012-01-24 06:20:50 51°15.738 2°54.1 -999 -999 -999 -999
2012-01-24 06:20:54 51°15.748 2°54.086 -999 -999 -999 -999
2012-01-24 06:21:00 51°15.763 2°54.063 -999 -999 -999 -999
2012-01-24 06:21:05 51°15.775 2°54.045 -999 -999 -999 -999
2012-01-24 06:21:10 51°15.788 2°54.027 -999 -999 -999 -999
2012-01-24 06:21:14 51°15.798 2°54.012 -999 -999 -999 -999
2012-01-24 06:21:20 51°15.813 2°53.991 -999 -999 -999 -999
2012-01-24 06:21:25 51°15.827 2°53.974 -999 -999 -999 -999
2012-01-24 06:21:30 51°15.839 2°53.956 -999 -999 -999 -999
2012-01-24 06:21:34 51°15.849 2°53.942 -999 -999 -999 -999
2012-01-24 06:21:40 51°15.865 2°53.92 -999 -999 -999 -999
2012-01-24 06:21:45 51°15.878 2°53.903 -999 -999 -999 -999
2012-01-24 06:21:50 51°15.891 2°53.885 -999 -999 -999 -999
2012-01-24 06:21:54 51°15.901 2°53.871 -999 -999 -999 -999
2012-01-24 06:22:00 51°15.917 2°53.849 -999 -999 -999 -999
2012-01-24 06:22:05 51°15.93 2°53.831 -999 -999 -999 -999
2012-01-24 06:22:10 51°15.942 2°53.812 -999 -999 -999 -999
2012-01-24 06:22:14 51°15.953 2°53.798 -999 -999 -999 -999
2012-01-24 06:22:20 51°15.969 2°53.776 -999 -999 -999 -999
2012-01-24 06:22:25 51°15.982 2°53.758 -999 -999 -999 -999
2012-01-24 06:22:30 51°15.995 2°53.74 -999 -999 -999 -999
2012-01-24 06:22:34 51°16.005 2°53.726 -999 -999 -999 -999
2012-01-24 06:22:40 51°16.021 2°53.705 -999 -999 -999 -999
2012-01-24 06:22:45 51°16.035 2°53.689 -999 -999 -999 -999
2012-01-24 06:22:50 51°16.049 2°53.673 -999 -999 -999 -999
2012-01-24 06:22:54 51°16.06 2°53.661 -999 -999 -999 -999
2012-01-24 06:23:00 51°16.077 2°53.643 -999 -999 -999 -999
2012-01-24 06:23:05 51°16.092 2°53.628 -999 -999 -999 -999
2012-01-24 06:23:10 51°16.106 2°53.614 -999 -999 -999 -999
2012-01-24 06:23:15 51°16.12 2°53.6 -999 -999 -999 -999
2012-01-24 06:23:19 51°16.132 2°53.588 -999 -999 -999 -999
2012-01-24 06:23:25 51°16.149 2°53.57 -999 -999 -999 -999
2012-01-24 06:23:30 51°16.163 2°53.556 -999 -999 -999 -999
2012-01-24 06:23:34 51°16.175 2°53.544 -999 -999 -999 -999
2012-01-24 06:23:40 51°16.192 2°53.527 -999 -999 -999 -999
2012-01-24 06:23:45 51°16.206 2°53.512 -999 -999 -999 -999
2012-01-24 06:23:50 51°16.221 2°53.497 -999 -999 -999 -999
2012-01-24 06:23:54 51°16.232 2°53.485 -999 -999 -999 -999
2012-01-24 06:24:00 51°16.249 2°53.466 -999 -999 -999 -999
2012-01-24 06:24:05 51°16.263 2°53.451 -999 -999 -999 -999
2012-01-24 06:24:10 51°16.277 2°53.435 -999 -999 -999 -999
2012-01-24 06:24:14 51°16.288 2°53.422 -999 -999 -999 -999
2012-01-24 06:24:20 51°16.305 2°53.402 -999 -999 -999 -999
2012-01-24 06:24:25 51°16.318 2°53.385 -999 -999 -999 -999
2012-01-24 06:24:30 51°16.332 2°53.369 -999 -999 -999 -999
2012-01-24 06:24:34 51°16.343 2°53.355 -999 -999 -999 -999
2012-01-24 06:24:40 51°16.359 2°53.334 -999 -999 -999 -999
2012-01-24 06:24:45 51°16.372 2°53.316 -999 -999 -999 -999
2012-01-24 06:24:50 51°16.385 2°53.298 -999 -999 -999 -999
2012-01-24 06:24:54 51°16.395 2°53.283 -999 -999 -999 -999
2012-01-24 06:25:00 51°16.41 2°53.261 -999 -999 -999 -999
2012-01-24 06:25:05 51°16.423 2°53.242 -999 -999 -999 -999
2012-01-24 06:25:10 51°16.436 2°53.224 -999 -999 -999 -999
2012-01-24 06:25:14 51°16.447 2°53.209 -999 -999 -999 -999
2012-01-24 06:25:20 51°16.463 2°53.188 -999 -999 -999 -999
2012-01-24 06:25:25 51°16.476 2°53.17 -999 -999 -999 -999
2012-01-24 06:25:30 51°16.489 2°53.152 -999 -999 -999 -999
2012-01-24 06:25:35 51°16.503 2°53.136 -999 -999 -999 -999
2012-01-24 06:25:39 51°16.514 2°53.124 -999 -999 -999 -999
2012-01-24 06:25:45 51°16.531 2°53.105 -999 -999 -999 -999
2012-01-24 06:25:50 51°16.546 2°53.091 -999 -999 -999 -999
2012-01-24 06:25:54 51°16.557 2°53.081 -999 -999 -999 -999
2012-01-24 06:26:00 51°16.575 2°53.064 -999 -999 -999 -999
2012-01-24 06:26:05 51°16.589 2°53.049 -999 -999 -999 -999
2012-01-24 06:26:10 51°16.603 2°53.035 -999 -999 -999 -999
2012-01-24 06:26:14 51°16.615 2°53.024 -999 -999 -999 -999
2012-01-24 06:26:20 51°16.632 2°53.007 -999 -999 -999 -999
2012-01-24 06:26:25 51°16.646 2°52.993 -999 -999 -999 -999
2012-01-24 06:26:30 51°16.661 2°52.978 -999 -999 -999 -999
2012-01-24 06:26:35 51°16.675 2°52.963 -999 -999 -999 -999
2012-01-24 06:26:40 51°16.689 2°52.948 -999 -999 -999 -999
2012-01-24 06:26:45 51°16.702 2°52.932 -999 -999 -999 -999
2012-01-24 06:26:50 51°16.716 2°52.916 -999 -999 -999 -999
2012-01-24 06:26:55 51°16.729 2°52.899 -999 -999 -999 -999
2012-01-24 06:27:00 51°16.743 2°52.882 -999 -999 -999 -999
2012-01-24 06:27:05 51°16.756 2°52.866 -999 -999 -999 -999
2012-01-24 06:27:10 51°16.77 2°52.85 -999 -999 -999 -999
2012-01-24 06:27:14 51°16.781 2°52.839 -999 -999 -999 -999
2012-01-24 06:27:20 51°16.798 2°52.821 -999 -999 -999 -999
2012-01-24 06:27:25 51°16.812 2°52.808 -999 -999 -999 -999
2012-01-24 06:27:30 51°16.827 2°52.796 -999 -999 -999 -999
2012-01-24 06:27:34 51°16.839 2°52.786 -999 -999 -999 -999
2012-01-24 06:27:40 51°16.856 2°52.772 -999 -999 -999 -999
2012-01-24 06:27:45 51°16.871 2°52.76 -999 -999 -999 -999
2012-01-24 06:27:50 51°16.886 2°52.749 -999 -999 -999 -999
2012-01-24 06:27:54 51°16.898 2°52.74 -999 -999 -999 -999
2012-01-24 06:28:00 51°16.915 2°52.726 -999 -999 -999 -999
2012-01-24 06:28:05 51°16.93 2°52.715 -999 -999 -999 -999
2012-01-24 06:28:10 51°16.945 2°52.703 -999 -999 -999 -999
2012-01-24 06:28:14 51°16.957 2°52.694 -999 -999 -999 -999
2012-01-24 06:28:20 51°16.975 2°52.68 -999 -999 -999 -999
2012-01-24 06:28:25 51°16.99 2°52.669 -999 -999 -999 -999
2012-01-24 06:28:30 51°17.005 2°52.657 -999 -999 -999 -999
2012-01-24 06:28:34 51°17.016 2°52.648 -999 -999 -999 -999
2012-01-24 06:28:40 51°17.034 2°52.633 -999 -999 -999 -999
2012-01-24 06:28:45 51°17.049 2°52.621 -999 -999 -999 -999
2012-01-24 06:28:50 51°17.064 2°52.609 -999 -999 -999 -999
2012-01-24 06:28:55 51°17.078 2°52.596 -999 -999 -999 -999
2012-01-24 06:29:00 51°17.093 2°52.583 -999 -999 -999 -999
2012-01-24 06:29:05 51°17.107 2°52.571 -999 -999 -999 -999
2012-01-24 06:29:10 51°17.122 2°52.558 -999 -999 -999 -999
2012-01-24 06:29:14 51°17.133 2°52.548 -999 -999 -999 -999
2012-01-24 06:29:20 51°17.151 2°52.533 -999 -999 -999 -999
2012-01-24 06:29:25 51°17.166 2°52.521 -999 -999 -999 -999
2012-01-24 06:29:30 51°17.181 2°52.508 -999 -999 -999 -999
2012-01-24 06:29:34 51°17.193 2°52.499 -999 -999 -999 -999
2012-01-24 06:29:40 51°17.211 2°52.484 -999 -999 -999 -999
2012-01-24 06:29:45 51°17.225 2°52.473 -999 -999 -999 -999
2012-01-24 06:29:50 51°17.24 2°52.461 -999 -999 -999 -999
2012-01-24 06:29:54 51°17.252 2°52.452 -999 -999 -999 -999
2012-01-24 06:30:00 51°17.271 2°52.44 -999 -999 -999 -999
2012-01-24 06:30:05 51°17.286 2°52.43 -999 -999 -999 -999
2012-01-24 06:30:10 51°17.301 2°52.421 -999 -999 -999 -999
2012-01-24 06:30:14 51°17.314 2°52.414 -999 -999 -999 -999
2012-01-24 06:30:19 51°17.33 2°52.405 -999 -999 -999 -999
2012-01-24 06:30:25 51°17.348 2°52.396 -999 -999 -999 -999
2012-01-24 06:30:30 51°17.364 2°52.388 -999 -999 -999 -999
2012-01-24 06:30:35 51°17.379 2°52.38 -999 -999 -999 -999
2012-01-24 06:30:40 51°17.395 2°52.372 -999 -999 -999 -999
2012-01-24 06:30:45 51°17.411 2°52.365 -999 -999 -999 -999
2012-01-24 06:30:50 51°17.427 2°52.359 -999 -999 -999 -999
2012-01-24 06:30:55 51°17.443 2°52.354 -999 -999 -999 -999
2012-01-24 06:31:00 51°17.459 2°52.348 -999 -999 -999 -999
2012-01-24 06:31:05 51°17.475 2°52.344 -999 -999 -999 -999
2012-01-24 06:31:10 51°17.491 2°52.339 -999 -999 -999 -999
2012-01-24 06:31:15 51°17.507 2°52.335 -999 -999 -999 -999
2012-01-24 06:31:20 51°17.523 2°52.331 -999 -999 -999 -999
2012-01-24 06:31:25 51°17.539 2°52.327 -999 -999 -999 -999
2012-01-24 06:31:30 51°17.555 2°52.324 -999 -999 -999 -999
2012-01-24 06:31:34 51°17.568 2°52.321 -999 -999 -999 -999
2012-01-24 06:31:40 51°17.587 2°52.316 -999 -999 -999 -999
2012-01-24 06:31:45 51°17.604 2°52.313 -999 -999 -999 -999
2012-01-24 06:31:50 51°17.619 2°52.309 -999 -999 -999 -999
2012-01-24 06:31:54 51°17.632 2°52.307 -999 -999 -999 -999
2012-01-24 06:32:00 51°17.652 2°52.302 -999 -999 -999 -999
2012-01-24 06:32:05 51°17.667 2°52.3 -999 -999 -999 -999
2012-01-24 06:32:10 51°17.683 2°52.298 -999 -999 -999 -999
2012-01-24 06:32:14 51°17.696 2°52.297 -999 -999 -999 -999
2012-01-24 06:32:20 51°17.715 2°52.294 -999 -999 -999 -999
2012-01-24 06:32:25 51°17.731 2°52.294 -999 -999 -999 -999
2012-01-24 06:32:30 51°17.747 2°52.293 -999 -999 -999 -999
2012-01-24 06:32:34 51°17.76 2°52.292 -999 -999 -999 -999
2012-01-24 06:32:40 51°17.779 2°52.291 -999 -999 -999 -999
2012-01-24 06:32:45 51°17.795 2°52.291 -999 -999 -999 -999
2012-01-24 06:32:50 51°17.811 2°52.29 -999 -999 -999 -999
2012-01-24 06:32:54 51°17.824 2°52.289 -999 -999 -999 -999
2012-01-24 06:32:59 51°17.84 2°52.288 -999 -999 -999 -999
2012-01-24 06:33:05 51°17.859 2°52.288 -999 -999 -999 -999
2012-01-24 06:33:10 51°17.875 2°52.286 -999 -999 -999 -999
2012-01-24 06:33:15 51°17.891 2°52.287 -999 -999 -999 -999
2012-01-24 06:33:20 51°17.907 2°52.285 -999 -999 -999 -999
2012-01-24 06:33:25 51°17.923 2°52.284 -999 -999 -999 -999
2012-01-24 06:33:30 51°17.939 2°52.282 -999 -999 -999 -999
2012-01-24 06:33:35 51°17.955 2°52.281 -999 -999 -999 -999
2012-01-24 06:33:40 51°17.971 2°52.278 -999 -999 -999 -999
2012-01-24 06:33:45 51°17.987 2°52.276 -999 -999 -999 -999
2012-01-24 06:33:50 51°18.003 2°52.273 -999 -999 -999 -999
2012-01-24 06:33:54 51°18.016 2°52.271 -999 -999 -999 -999
2012-01-24 06:34:00 51°18.036 2°52.266 -999 -999 -999 -999
2012-01-24 06:34:05 51°18.051 2°52.263 -999 -999 -999 -999
2012-01-24 06:34:10 51°18.068 2°52.259 -999 -999 -999 -999
2012-01-24 06:34:14 51°18.081 2°52.257 -999 -999 -999 -999
2012-01-24 06:34:20 51°18.1 2°52.252 -999 -999 -999 -999
2012-01-24 06:34:25 51°18.116 2°52.249 -999 -999 -999 -999
2012-01-24 06:34:30 51°18.131 2°52.245 -999 -999 -999 -999
2012-01-24 06:34:34 51°18.144 2°52.243 -999 -999 -999 -999
2012-01-24 06:34:40 51°18.164 2°52.239 -999 -999 -999 -999
2012-01-24 06:34:45 51°18.18 2°52.236 -999 -999 -999 -999
2012-01-24 06:34:50 51°18.196 2°52.233 -999 -999 -999 -999
2012-01-24 06:34:54 51°18.209 2°52.232 -999 -999 -999 -999
2012-01-24 06:35:00 51°18.228 2°52.231 -999 -999 -999 -999
2012-01-24 06:35:05 51°18.244 2°52.23 -999 -999 -999 -999
2012-01-24 06:35:10 51°18.26 2°52.23 -999 -999 -999 -999
2012-01-24 06:35:14 51°18.273 2°52.231 -999 -999 -999 -999
2012-01-24 06:35:20 51°18.292 2°52.23 -999 -999 -999 -999
2012-01-24 06:35:25 51°18.308 2°52.229 -999 -999 -999 -999
2012-01-24 06:35:30 51°18.325 2°52.228 -999 -999 -999 -999
2012-01-24 06:35:34 51°18.338 2°52.227 -999 -999 -999 -999
2012-01-24 06:35:40 51°18.357 2°52.226 -999 -999 -999 -999
2012-01-24 06:35:45 51°18.373 2°52.224 -999 -999 -999 -999
2012-01-24 06:35:50 51°18.389 2°52.223 -999 -999 -999 -999
2012-01-24 06:35:54 51°18.402 2°52.221 -999 -999 -999 -999
2012-01-24 06:36:00 51°18.422 2°52.218 -999 -999 -999 -999
2012-01-24 06:36:05 51°18.438 2°52.216 -999 -999 -999 -999
2012-01-24 06:36:10 51°18.455 2°52.214 -999 -999 -999 -999
2012-01-24 06:36:14 51°18.468 2°52.213 -999 -999 -999 -999
2012-01-24 06:36:20 51°18.487 2°52.212 -999 -999 -999 -999
2012-01-24 06:36:25 51°18.503 2°52.211 -999 -999 -999 -999
2012-01-24 06:36:30 51°18.52 2°52.21 -999 -999 -999 -999
2012-01-24 06:36:34 51°18.533 2°52.21 -999 -999 -999 -999
2012-01-24 06:36:40 51°18.552 2°52.209 -999 -999 -999 -999
2012-01-24 06:36:45 51°18.568 2°52.208 -999 -999 -999 -999
2012-01-24 06:36:50 51°18.584 2°52.207 -999 -999 -999 -999
2012-01-24 06:36:54 51°18.597 2°52.206 -999 -999 -999 -999
2012-01-24 06:37:00 51°18.616 2°52.205 -999 -999 -999 -999
2012-01-24 06:37:05 51°18.632 2°52.204 -999 -999 -999 -999
2012-01-24 06:37:10 51°18.648 2°52.203 -999 -999 -999 -999
2012-01-24 06:37:14 51°18.662 2°52.202 -999 -999 -999 -999
2012-01-24 06:37:20 51°18.681 2°52.2 -999 -999 -999 -999
2012-01-24 06:37:25 51°18.697 2°52.199 -999 -999 -999 -999
2012-01-24 06:37:30 51°18.713 2°52.198 -999 -999 -999 -999
2012-01-24 06:37:34 51°18.726 2°52.197 -999 -999 -999 -999
2012-01-24 06:37:40 51°18.745 2°52.195 -999 -999 -999 -999
2012-01-24 06:37:45 51°18.762 2°52.193 -999 -999 -999 -999
2012-01-24 06:37:50 51°18.778 2°52.192 -999 -999 -999 -999
2012-01-24 06:37:54 51°18.791 2°52.19 -999 -999 -999 -999
2012-01-24 06:38:00 51°18.81 2°52.187 -999 -999 -999 -999
2012-01-24 06:38:05 51°18.826 2°52.183 -999 -999 -999 -999
2012-01-24 06:38:10 51°18.843 2°52.18 -999 -999 -999 -999
2012-01-24 06:38:15 51°18.859 2°52.176 -999 -999 -999 -999
2012-01-24 06:38:20 51°18.875 2°52.173 -999 -999 -999 -999
2012-01-24 06:38:25 51°18.891 2°52.169 -999 -999 -999 -999
2012-01-24 06:38:30 51°18.908 2°52.165 -999 -999 -999 -999
2012-01-24 06:38:34 51°18.921 2°52.162 -999 -999 -999 -999
2012-01-24 06:38:40 51°18.941 2°52.157 -999 -999 -999 -999
2012-01-24 06:38:45 51°18.957 2°52.153 -999 -999 -999 -999
2012-01-24 06:38:50 51°18.973 2°52.148 -999 -999 -999 -999
2012-01-24 06:38:54 51°18.986 2°52.144 -999 -999 -999 -999
2012-01-24 06:39:00 51°19.005 2°52.139 -999 -999 -999 -999
2012-01-24 06:39:05 51°19.022 2°52.134 -999 -999 -999 -999
2012-01-24 06:39:10 51°19.038 2°52.131 -999 -999 -999 -999
2012-01-24 06:39:14 51°19.051 2°52.128 -999 -999 -999 -999
2012-01-24 06:39:20 51°19.07 2°52.125 -999 -999 -999 -999
2012-01-24 06:39:25 51°19.086 2°52.123 -999 -999 -999 -999
2012-01-24 06:39:30 51°19.103 2°52.121 -999 -999 -999 -999
2012-01-24 06:39:34 51°19.115 2°52.12 -999 -999 -999 -999
2012-01-24 06:39:40 51°19.135 2°52.119 -999 -999 -999 -999
2012-01-24 06:39:45 51°19.151 2°52.117 -999 -999 -999 -999
2012-01-24 06:39:50 51°19.167 2°52.116 -999 -999 -999 -999
2012-01-24 06:39:54 51°19.18 2°52.116 -999 -999 -999 -999
2012-01-24 06:40:00 51°19.199 2°52.115 -999 -999 -999 -999
2012-01-24 06:40:05 51°19.215 2°52.113 -999 -999 -999 -999
2012-01-24 06:40:10 51°19.232 2°52.113 -999 -999 -999 -999
2012-01-24 06:40:14 51°19.245 2°52.112 -999 -999 -999 -999
2012-01-24 06:40:20 51°19.264 2°52.11 -999 -999 -999 -999
2012-01-24 06:40:25 51°19.281 2°52.107 -999 -999 -999 -999
2012-01-24 06:40:30 51°19.297 2°52.104 -999 -999 -999 -999
2012-01-24 06:40:35 51°19.313 2°52.1 -999 -999 -999 -999
2012-01-24 06:40:40 51°19.329 2°52.097 -999 -999 -999 -999
2012-01-24 06:40:45 51°19.345 2°52.092 -999 -999 -999 -999
2012-01-24 06:40:50 51°19.361 2°52.089 -999 -999 -999 -999
2012-01-24 06:40:54 51°19.374 2°52.085 -999 -999 -999 -999
2012-01-24 06:41:00 51°19.393 2°52.081 -999 -999 -999 -999
2012-01-24 06:41:05 51°19.409 2°52.076 -999 -999 -999 -999
2012-01-24 06:41:10 51°19.425 2°52.072 -999 -999 -999 -999
2012-01-24 06:41:14 51°19.437 2°52.069 -999 -999 -999 -999
2012-01-24 06:41:19 51°19.453 2°52.064 -999 -999 -999 -999
2012-01-24 06:41:25 51°19.472 2°52.059 -999 -999 -999 -999
2012-01-24 06:41:30 51°19.488 2°52.055 -999 -999 -999 -999
2012-01-24 06:41:34 51°19.501 2°52.052 -999 -999 -999 -999
2012-01-24 06:41:40 51°19.52 2°52.047 -999 -999 -999 -999
2012-01-24 06:41:45 51°19.536 2°52.044 -999 -999 -999 -999
2012-01-24 06:41:50 51°19.552 2°52.04 -999 -999 -999 -999
2012-01-24 06:41:54 51°19.565 2°52.038 -999 -999 -999 -999
2012-01-24 06:42:00 51°19.584 2°52.035 -999 -999 -999 -999
2012-01-24 06:42:05 51°19.601 2°52.034 -999 -999 -999 -999
2012-01-24 06:42:10 51°19.617 2°52.032 -999 -999 -999 -999
2012-01-24 06:42:14 51°19.629 2°52.031 -999 -999 -999 -999
2012-01-24 06:42:20 51°19.649 2°52.029 -999 -999 -999 -999
2012-01-24 06:42:25 51°19.664 2°52.028 -999 -999 -999 -999
2012-01-24 06:42:30 51°19.68 2°52.026 -999 -999 -999 -999
2012-01-24 06:42:35 51°19.696 2°52.025 -999 -999 -999 -999
2012-01-24 06:42:40 51°19.712 2°52.023 -999 -999 -999 -999
2012-01-24 06:42:45 51°19.728 2°52.022 -999 -999 -999 -999
2012-01-24 06:42:50 51°19.744 2°52.02 -999 -999 -999 -999
2012-01-24 06:42:54 51°19.757 2°52.018 -999 -999 -999 -999
2012-01-24 06:43:00 51°19.776 2°52.015 -999 -999 -999 -999
2012-01-24 06:43:05 51°19.792 2°52.011 -999 -999 -999 -999
2012-01-24 06:43:10 51°19.808 2°52.008 -999 -999 -999 -999
2012-01-24 06:43:14 51°19.821 2°52.004 -999 -999 -999 -999
2012-01-24 06:43:20 51°19.84 2°51.999 -999 -999 -999 -999
2012-01-24 06:43:25 51°19.856 2°51.995 -999 -999 -999 -999
2012-01-24 06:43:30 51°19.872 2°51.99 -999 -999 -999 -999
2012-01-24 06:43:34 51°19.885 2°51.987 -999 -999 -999 -999
2012-01-24 06:43:40 51°19.904 2°51.98 -999 -999 -999 -999
2012-01-24 06:43:45 51°19.92 2°51.976 -999 -999 -999 -999
2012-01-24 06:43:50 51°19.936 2°51.971 -999 -999 -999 -999
2012-01-24 06:43:55 51°19.952 2°51.967 -999 -999 -999 -999
2012-01-24 06:44:00 51°19.968 2°51.962 -999 -999 -999 -999
2012-01-24 06:44:05 51°19.984 2°51.958 -999 -999 -999 -999
2012-01-24 06:44:10 51°20 2°51.953 -999 -999 -999 -999
2012-01-24 06:44:14 51°20.013 2°51.949 -999 -999 -999 -999
2012-01-24 06:44:20 51°20.032 2°51.944 -999 -999 -999 -999
2012-01-24 06:44:25 51°20.048 2°51.94 -999 -999 -999 -999
2012-01-24 06:44:30 51°20.064 2°51.936 -999 -999 -999 -999
2012-01-24 06:44:34 51°20.077 2°51.932 -999 -999 -999 -999
2012-01-24 06:44:40 51°20.097 2°51.927 -999 -999 -999 -999
2012-01-24 06:44:45 51°20.113 2°51.923 -999 -999 -999 -999
2012-01-24 06:44:50 51°20.129 2°51.919 -999 -999 -999 -999
2012-01-24 06:44:54 51°20.142 2°51.917 -999 -999 -999 -999
2012-01-24 06:45:00 51°20.162 2°51.912 -999 -999 -999 -999
2012-01-24 06:45:05 51°20.178 2°51.91 -999 -999 -999 -999
2012-01-24 06:45:10 51°20.194 2°51.907 -999 -999 -999 -999
2012-01-24 06:45:15 51°20.21 2°51.905 -999 -999 -999 -999
2012-01-24 06:45:20 51°20.227 2°51.902 -999 -999 -999 -999
2012-01-24 06:45:25 51°20.243 2°51.9 -999 -999 -999 -999
2012-01-24 06:45:30 51°20.259 2°51.898 -999 -999 -999 -999
2012-01-24 06:45:34 51°20.272 2°51.896 -999 -999 -999 -999
2012-01-24 06:45:40 51°20.291 2°51.893 -999 -999 -999 -999
2012-01-24 06:45:45 51°20.307 2°51.891 -999 -999 -999 -999
2012-01-24 06:45:50 51°20.323 2°51.889 -999 -999 -999 -999
2012-01-24 06:45:54 51°20.337 2°51.888 -999 -999 -999 -999
2012-01-24 06:46:00 51°20.356 2°51.887 -999 -999 -999 -999
2012-01-24 06:46:05 51°20.372 2°51.885 -999 -999 -999 -999
2012-01-24 06:46:10 51°20.388 2°51.884 -999 -999 -999 -999
2012-01-24 06:46:15 51°20.404 2°51.882 -999 -999 -999 -999
2012-01-24 06:46:19 51°20.417 2°51.88 -999 -999 -999 -999
2012-01-24 06:46:25 51°20.436 2°51.878 -999 -999 -999 -999
2012-01-24 06:46:30 51°20.452 2°51.876 -999 -999 -999 -999
2012-01-24 06:46:34 51°20.466 2°51.873 -999 -999 -999 -999
2012-01-24 06:46:40 51°20.485 2°51.87 -999 -999 -999 -999
2012-01-24 06:46:45 51°20.501 2°51.867 -999 -999 -999 -999
2012-01-24 06:46:50 51°20.517 2°51.864 -999 -999 -999 -999
2012-01-24 06:46:55 51°20.533 2°51.862 -999 -999 -999 -999
2012-01-24 06:46:59 51°20.546 2°51.86 -999 -999 -999 -999
2012-01-24 06:47:05 51°20.566 2°51.857 -999 -999 -999 -999
2012-01-24 06:47:10 51°20.582 2°51.855 -999 -999 -999 -999
2012-01-24 06:47:15 51°20.598 2°51.852 -999 -999 -999 -999
2012-01-24 06:47:20 51°20.614 2°51.849 -999 -999 -999 -999
2012-01-24 06:47:25 51°20.631 2°51.846 -999 -999 -999 -999
2012-01-24 06:47:30 51°20.647 2°51.842 -999 -999 -999 -999
2012-01-24 06:47:35 51°20.663 2°51.838 -999 -999 -999 -999
2012-01-24 06:47:40 51°20.679 2°51.834 -999 -999 -999 -999
2012-01-24 06:47:45 51°20.695 2°51.829 -999 -999 -999 -999
2012-01-24 06:47:50 51°20.712 2°51.825 -999 -999 -999 -999
2012-01-24 06:47:54 51°20.725 2°51.821 -999 -999 -999 -999
2012-01-24 06:48:00 51°20.744 2°51.814 -999 -999 -999 -999
2012-01-24 06:48:05 51°20.76 2°51.809 -999 -999 -999 -999
2012-01-24 06:48:10 51°20.777 2°51.805 -999 -999 -999 -999
2012-01-24 06:48:14 51°20.79 2°51.802 -999 -999 -999 -999
2012-01-24 06:48:19 51°20.806 2°51.798 -999 -999 -999 -999
2012-01-24 06:48:25 51°20.825 2°51.792 -999 -999 -999 -999
2012-01-24 06:48:30 51°20.841 2°51.788 -999 -999 -999 -999
2012-01-24 06:48:35 51°20.858 2°51.783 -999 -999 -999 -999
2012-01-24 06:48:39 51°20.871 2°51.78 -999 -999 -999 -999
2012-01-24 06:48:45 51°20.89 2°51.776 -999 -999 -999 -999
2012-01-24 06:48:50 51°20.907 2°51.772 -999 -999 -999 -999
2012-01-24 06:48:55 51°20.923 2°51.769 -999 -999 -999 -999
2012-01-24 06:49:00 51°20.94 2°51.765 -999 -999 -999 -999
2012-01-24 06:49:05 51°20.956 2°51.761 -999 -999 -999 -999
2012-01-24 06:49:10 51°20.972 2°51.757 -999 -999 -999 -999
2012-01-24 06:49:15 51°20.988 2°51.753 -999 -999 -999 -999
2012-01-24 06:49:20 51°21.005 2°51.75 -999 -999 -999 -999
2012-01-24 06:49:25 51°21.021 2°51.746 -999 -999 -999 -999
2012-01-24 06:49:30 51°21.038 2°51.743 -999 -999 -999 -999
2012-01-24 06:49:35 51°21.054 2°51.739 -999 -999 -999 -999
2012-01-24 06:49:40 51°21.07 2°51.736 -999 -999 -999 -999
2012-01-24 06:49:45 51°21.087 2°51.732 -999 -999 -999 -999
2012-01-24 06:49:50 51°21.103 2°51.728 -999 -999 -999 -999
2012-01-24 06:49:54 51°21.116 2°51.725 -999 -999 -999 -999
2012-01-24 06:50:00 51°21.135 2°51.72 -999 -999 -999 -999
2012-01-24 06:50:05 51°21.152 2°51.716 -999 -999 -999 -999
2012-01-24 06:50:10 51°21.168 2°51.712 -999 -999 -999 -999
2012-01-24 06:50:14 51°21.181 2°51.709 -999 -999 -999 -999
2012-01-24 06:50:20 51°21.2 2°51.705 -999 -999 -999 -999
2012-01-24 06:50:25 51°21.217 2°51.701 -999 -999 -999 -999
2012-01-24 06:50:30 51°21.233 2°51.699 -999 -999 -999 -999
2012-01-24 06:50:35 51°21.249 2°51.697 -999 -999 -999 -999
2012-01-24 06:50:39 51°21.263 2°51.695 -999 -999 -999 -999
2012-01-24 06:50:45 51°21.282 2°51.693 -999 -999 -999 -999
2012-01-24 06:50:50 51°21.299 2°51.691 -999 -999 -999 -999
2012-01-24 06:50:55 51°21.315 2°51.69 -999 -999 -999 -999
2012-01-24 06:51:00 51°21.331 2°51.688 -999 -999 -999 -999
2012-01-24 06:51:05 51°21.348 2°51.686 -999 -999 -999 -999
2012-01-24 06:51:10 51°21.364 2°51.684 -999 -999 -999 -999
2012-01-24 06:51:15 51°21.381 2°51.683 -999 -999 -999 -999
2012-01-24 06:51:20 51°21.397 2°51.681 -999 -999 -999 -999
2012-01-24 06:51:25 51°21.414 2°51.68 -999 -999 -999 -999
2012-01-24 06:51:30 51°21.43 2°51.678 -999 -999 -999 -999
2012-01-24 06:51:35 51°21.447 2°51.677 -999 -999 -999 -999
2012-01-24 06:51:40 51°21.463 2°51.675 -999 -999 -999 -999
2012-01-24 06:51:45 51°21.48 2°51.673 -999 -999 -999 -999
2012-01-24 06:51:50 51°21.497 2°51.67 -999 -999 -999 -999
2012-01-24 06:51:55 51°21.513 2°51.667 -999 -999 -999 -999
2012-01-24 06:52:00 51°21.529 2°51.663 -999 -999 -999 -999
2012-01-24 06:52:05 51°21.546 2°51.66 -999 -999 -999 -999
2012-01-24 06:52:10 51°21.562 2°51.656 -999 -999 -999 -999
2012-01-24 06:52:14 51°21.576 2°51.653 -999 -999 -999 -999
2012-01-24 06:52:20 51°21.595 2°51.648 -999 -999 -999 -999
2012-01-24 06:52:25 51°21.612 2°51.644 -999 -999 -999 -999
2012-01-24 06:52:30 51°21.629 2°51.641 -999 -999 -999 -999
2012-01-24 06:52:35 51°21.646 2°51.639 -999 -999 -999 -999
2012-01-24 06:52:40 51°21.662 2°51.636 -999 -999 -999 -999
2012-01-24 06:52:45 51°21.679 2°51.635 -999 -999 -999 -999
2012-01-24 06:52:50 51°21.695 2°51.633 -999 -999 -999 -999
2012-01-24 06:52:55 51°21.712 2°51.632 -999 -999 -999 -999
2012-01-24 06:52:59 51°21.726 2°51.63 -999 -999 -999 -999
2012-01-24 06:53:05 51°21.746 2°51.628 -999 -999 -999 -999
2012-01-24 06:53:10 51°21.762 2°51.627 -999 -999 -999 -999
2012-01-24 06:53:15 51°21.779 2°51.626 -999 -999 -999 -999
2012-01-24 06:53:19 51°21.792 2°51.626 -999 -999 -999 -999
2012-01-24 06:53:25 51°21.812 2°51.626 -999 -999 -999 -999
2012-01-24 06:53:30 51°21.829 2°51.625 -999 -999 -999 -999
2012-01-24 06:53:34 51°21.842 2°51.625 -999 -999 -999 -999
2012-01-24 06:53:40 51°21.862 2°51.625 -999 -999 -999 -999
2012-01-24 06:53:45 51°21.878 2°51.624 -999 -999 -999 -999
2012-01-24 06:53:50 51°21.895 2°51.624 -999 -999 -999 -999
2012-01-24 06:53:55 51°21.911 2°51.624 -999 -999 -999 -999
2012-01-24 06:54:00 51°21.928 2°51.625 -999 -999 -999 -999
2012-01-24 06:54:05 51°21.944 2°51.625 -999 -999 -999 -999
2012-01-24 06:54:10 51°21.96 2°51.626 -999 -999 -999 -999
2012-01-24 06:54:14 51°21.974 2°51.626 -999 -999 -999 -999
2012-01-24 06:54:20 51°21.993 2°51.626 -999 -999 -999 -999
2012-01-24 06:54:25 51°22.01 2°51.627 -999 -999 -999 -999
2012-01-24 06:54:30 51°22.026 2°51.628 -999 -999 -999 -999
2012-01-24 06:54:35 51°22.043 2°51.629 -999 -999 -999 -999
2012-01-24 06:54:40 51°22.059 2°51.63 -999 -999 -999 -999
2012-01-24 06:54:45 51°22.076 2°51.632 -999 -999 -999 -999
2012-01-24 06:54:50 51°22.092 2°51.633 -999 -999 -999 -999
2012-01-24 06:54:55 51°22.109 2°51.634 -999 -999 -999 -999
2012-01-24 06:55:00 51°22.125 2°51.635 -999 -999 -999 -999
2012-01-24 06:55:05 51°22.142 2°51.635 -999 -999 -999 -999
2012-01-24 06:55:10 51°22.159 2°51.636 -999 -999 -999 -999
2012-01-24 06:55:15 51°22.175 2°51.637 -999 -999 -999 -999
2012-01-24 06:55:19 51°22.188 2°51.637 -999 -999 -999 -999
2012-01-24 06:55:25 51°22.208 2°51.638 -999 -999 -999 -999
2012-01-24 06:55:30 51°22.225 2°51.639 -999 -999 -999 -999
2012-01-24 06:55:34 51°22.238 2°51.639 -999 -999 -999 -999
2012-01-24 06:55:40 51°22.258 2°51.638 -999 -999 -999 -999
2012-01-24 06:55:45 51°22.275 2°51.637 -999 -999 -999 -999
2012-01-24 06:55:50 51°22.292 2°51.636 -999 -999 -999 -999
2012-01-24 06:55:55 51°22.309 2°51.634 -999 -999 -999 -999
2012-01-24 06:55:59 51°22.322 2°51.633 -999 -999 -999 -999
2012-01-24 06:56:05 51°22.342 2°51.63 -999 -999 -999 -999
2012-01-24 06:56:10 51°22.359 2°51.628 -999 -999 -999 -999
2012-01-24 06:56:15 51°22.376 2°51.626 -999 -999 -999 -999
2012-01-24 06:56:20 51°22.392 2°51.624 -999 -999 -999 -999
2012-01-24 06:56:25 51°22.408 2°51.623 -999 -999 -999 -999
2012-01-24 06:56:30 51°22.425 2°51.621 -999 -999 -999 -999
2012-01-24 06:56:35 51°22.441 2°51.62 -999 -999 -999 -999
2012-01-24 06:56:40 51°22.458 2°51.618 -999 -999 -999 -999
2012-01-24 06:56:45 51°22.474 2°51.618 -999 -999 -999 -999
2012-01-24 06:56:50 51°22.49 2°51.617 -999 -999 -999 -999
2012-01-24 06:56:54 51°22.503 2°51.617 -999 -999 -999 -999
2012-01-24 06:56:59 51°22.519 2°51.617 -999 -999 -999 -999
2012-01-24 06:57:05 51°22.539 2°51.617 -999 -999 -999 -999
2012-01-24 06:57:10 51°22.555 2°51.616 -999 -999 -999 -999
2012-01-24 06:57:14 51°22.568 2°51.617 -999 -999 -999 -999
2012-01-24 06:57:20 51°22.587 2°51.617 -999 -999 -999 -999
2012-01-24 06:57:25 51°22.603 2°51.618 -999 -999 -999 -999
2012-01-24 06:57:30 51°22.619 2°51.619 -999 -999 -999 -999
2012-01-24 06:57:35 51°22.635 2°51.619 -999 -999 -999 -999
2012-01-24 06:57:40 51°22.651 2°51.619 -999 -999 -999 -999
2012-01-24 06:57:45 51°22.667 2°51.619 -999 -999 -999 -999
2012-01-24 06:57:50 51°22.683 2°51.619 -999 -999 -999 -999
2012-01-24 06:57:55 51°22.699 2°51.619 -999 -999 -999 -999
2012-01-24 06:57:59 51°22.712 2°51.618 -999 -999 -999 -999
2012-01-24 06:58:05 51°22.732 2°51.618 -999 -999 -999 -999
2012-01-24 06:58:10 51°22.748 2°51.617 -999 -999 -999 -999
2012-01-24 06:58:15 51°22.764 2°51.616 -999 -999 -999 -999
2012-01-24 06:58:20 51°22.78 2°51.615 -999 -999 -999 -999
2012-01-24 06:58:25 51°22.797 2°51.613 -999 -999 -999 -999
2012-01-24 06:58:30 51°22.813 2°51.612 -999 -999 -999 -999
2012-01-24 06:58:35 51°22.828 2°51.611 -999 -999 -999 -999
2012-01-24 06:58:40 51°22.845 2°51.609 -999 -999 -999 -999
2012-01-24 06:58:45 51°22.861 2°51.608 -999 -999 -999 -999
2012-01-24 06:58:50 51°22.877 2°51.607 -999 -999 -999 -999
2012-01-24 06:58:55 51°22.893 2°51.606 -999 -999 -999 -999
2012-01-24 06:59:00 51°22.909 2°51.605 -999 -999 -999 -999
2012-01-24 06:59:05 51°22.925 2°51.605 -999 -999 -999 -999
2012-01-24 06:59:10 51°22.941 2°51.604 -999 -999 -999 -999
2012-01-24 06:59:14 51°22.955 2°51.604 -999 -999 -999 -999
2012-01-24 06:59:20 51°22.974 2°51.603 -999 -999 -999 -999
2012-01-24 06:59:25 51°22.991 2°51.603 -999 -999 -999 -999
2012-01-24 06:59:30 51°23.007 2°51.604 -999 -999 -999 -999
2012-01-24 06:59:35 51°23.023 2°51.605 -999 -999 -999 -999
2012-01-24 06:59:39 51°23.036 2°51.605 -999 -999 -999 -999
2012-01-24 06:59:45 51°23.056 2°51.606 -999 -999 -999 -999
2012-01-24 06:59:50 51°23.072 2°51.607 -999 -999 -999 -999
2012-01-24 06:59:55 51°23.088 2°51.608 -999 -999 -999 -999
2012-01-24 07:00:00 51°23.104 2°51.609 -999 -999 -999 -999
2012-01-24 07:00:05 51°23.12 2°51.609 -999 -999 -999 -999
2012-01-24 07:00:10 51°23.136 2°51.61 -999 -999 -999 -999
2012-01-24 07:00:15 51°23.153 2°51.61 -999 -999 -999 -999
2012-01-24 07:00:20 51°23.169 2°51.611 -999 -999 -999 -999
2012-01-24 07:00:25 51°23.185 2°51.61 -999 -999 -999 -999
2012-01-24 07:00:30 51°23.202 2°51.61 -999 -999 -999 -999
2012-01-24 07:00:35 51°23.218 2°51.609 -999 -999 -999 -999
2012-01-24 07:00:40 51°23.234 2°51.609 -999 -999 -999 -999
2012-01-24 07:00:45 51°23.251 2°51.608 -999 -999 -999 -999
2012-01-24 07:00:50 51°23.267 2°51.608 -999 -999 -999 -999
2012-01-24 07:00:55 51°23.283 2°51.608 -999 -999 -999 -999
2012-01-24 07:01:00 51°23.299 2°51.608 -999 -999 -999 -999
2012-01-24 07:01:05 51°23.316 2°51.608 -999 -999 -999 -999
2012-01-24 07:01:10 51°23.332 2°51.609 -999 -999 -999 -999
2012-01-24 07:01:14 51°23.345 2°51.609 -999 -999 -999 -999
2012-01-24 07:01:20 51°23.365 2°51.611 -999 -999 -999 -999
2012-01-24 07:01:25 51°23.381 2°51.611 -999 -999 -999 -999
2012-01-24 07:01:30 51°23.397 2°51.612 -999 -999 -999 -999
2012-01-24 07:01:34 51°23.411 2°51.613 -999 -999 -999 -999
2012-01-24 07:01:40 51°23.43 2°51.614 -999 -999 -999 -999
2012-01-24 07:01:45 51°23.447 2°51.616 -999 -999 -999 -999
2012-01-24 07:01:50 51°23.463 2°51.617 -999 -999 -999 -999
2012-01-24 07:01:54 51°23.476 2°51.618 -999 -999 -999 -999
2012-01-24 07:02:00 51°23.496 2°51.619 -999 -999 -999 -999
2012-01-24 07:02:05 51°23.513 2°51.62 -999 -999 -999 -999
2012-01-24 07:02:10 51°23.529 2°51.62 -999 -999 -999 -999
2012-01-24 07:02:15 51°23.546 2°51.62 -999 -999 -999 -999
2012-01-24 07:02:19 51°23.559 2°51.619 -999 -999 -999 -999
2012-01-24 07:02:25 51°23.578 2°51.616 -999 -999 -999 -999
2012-01-24 07:02:30 51°23.595 2°51.614 -999 -999 -999 -999
2012-01-24 07:02:35 51°23.611 2°51.612 -999 -999 -999 -999
2012-01-24 07:02:40 51°23.627 2°51.61 -999 -999 -999 -999
2012-01-24 07:02:45 51°23.644 2°51.609 -999 -999 -999 -999
2012-01-24 07:02:50 51°23.66 2°51.608 -999 -999 -999 -999
2012-01-24 07:02:55 51°23.676 2°51.606 -999 -999 -999 -999
2012-01-24 07:03:00 51°23.693 2°51.604 -999 -999 -999 -999
2012-01-24 07:03:05 51°23.709 2°51.603 -999 -999 -999 -999
2012-01-24 07:03:10 51°23.726 2°51.601 -999 -999 -999 -999
2012-01-24 07:03:15 51°23.742 2°51.599 -999 -999 -999 -999
2012-01-24 07:03:20 51°23.759 2°51.599 -999 -999 -999 -999
2012-01-24 07:03:25 51°23.775 2°51.597 -999 -999 -999 -999
2012-01-24 07:03:30 51°23.791 2°51.598 -999 -999 -999 -999
2012-01-24 07:03:35 51°23.808 2°51.597 -999 -999 -999 -999
2012-01-24 07:03:40 51°23.824 2°51.597 -999 -999 -999 -999
2012-01-24 07:03:45 51°23.84 2°51.599 -999 -999 -999 -999
2012-01-24 07:03:50 51°23.856 2°51.6 -999 -999 -999 -999
2012-01-24 07:03:55 51°23.872 2°51.603 -999 -999 -999 -999
2012-01-24 07:04:00 51°23.889 2°51.605 -999 -999 -999 -999
2012-01-24 07:04:05 51°23.905 2°51.608 -999 -999 -999 -999
2012-01-24 07:04:10 51°23.921 2°51.611 -999 -999 -999 -999
2012-01-24 07:04:15 51°23.937 2°51.613 -999 -999 -999 -999
2012-01-24 07:04:20 51°23.952 2°51.616 -999 -999 -999 -999
2012-01-24 07:04:25 51°23.968 2°51.619 -999 -999 -999 -999
2012-01-24 07:04:30 51°23.984 2°51.622 -999 -999 -999 -999
2012-01-24 07:04:35 51°24 2°51.625 -999 -999 -999 -999
2012-01-24 07:04:40 51°24.015 2°51.629 -999 -999 -999 -999
2012-01-24 07:04:45 51°24.032 2°51.631 -999 -999 -999 -999
2012-01-24 07:04:50 51°24.048 2°51.634 -999 -999 -999 -999
2012-01-24 07:04:55 51°24.064 2°51.636 -999 -999 -999 -999
2012-01-24 07:04:59 51°24.077 2°51.637 -999 -999 -999 -999
2012-01-24 07:05:05 51°24.096 2°51.638 -999 -999 -999 -999
2012-01-24 07:05:10 51°24.112 2°51.637 -999 -999 -999 -999
2012-01-24 07:05:15 51°24.128 2°51.638 -999 -999 -999 -999
2012-01-24 07:05:20 51°24.145 2°51.638 -999 -999 -999 -999
2012-01-24 07:05:25 51°24.161 2°51.638 -999 -999 -999 -999
2012-01-24 07:05:30 51°24.177 2°51.637 -999 -999 -999 -999
2012-01-24 07:05:35 51°24.193 2°51.638 -999 -999 -999 -999
2012-01-24 07:05:40 51°24.21 2°51.638 -999 -999 -999 -999
2012-01-24 07:05:45 51°24.226 2°51.638 -999 -999 -999 -999
2012-01-24 07:05:50 51°24.242 2°51.638 -999 -999 -999 -999
2012-01-24 07:05:54 51°24.255 2°51.638 -999 -999 -999 -999
2012-01-24 07:06:00 51°24.275 2°51.638 -999 -999 -999 -999
2012-01-24 07:06:05 51°24.291 2°51.638 -999 -999 -999 -999
2012-01-24 07:06:10 51°24.307 2°51.639 -999 -999 -999 -999
2012-01-24 07:06:15 51°24.324 2°51.64 -999 -999 -999 -999
2012-01-24 07:06:19 51°24.337 2°51.641 -999 -999 -999 -999
2012-01-24 07:06:25 51°24.356 2°51.644 -999 -999 -999 -999
2012-01-24 07:06:30 51°24.372 2°51.646 -999 -999 -999 -999
2012-01-24 07:06:35 51°24.388 2°51.649 -999 -999 -999 -999
2012-01-24 07:06:40 51°24.404 2°51.652 -999 -999 -999 -999
2012-01-24 07:06:45 51°24.42 2°51.655 -999 -999 -999 -999
2012-01-24 07:06:50 51°24.436 2°51.657 -999 -999 -999 -999
2012-01-24 07:06:55 51°24.452 2°51.66 -999 -999 -999 -999
2012-01-24 07:06:59 51°24.465 2°51.662 -999 -999 -999 -999
2012-01-24 07:07:05 51°24.484 2°51.666 -999 -999 -999 -999
2012-01-24 07:07:10 51°24.499 2°51.667 -999 -999 -999 -999
2012-01-24 07:07:14 51°24.512 2°51.669 -999 -999 -999 -999
2012-01-24 07:07:20 51°24.531 2°51.67 -999 -999 -999 -999
2012-01-24 07:07:25 51°24.547 2°51.671 -999 -999 -999 -999
2012-01-24 07:07:30 51°24.564 2°51.672 -999 -999 -999 -999
2012-01-24 07:07:35 51°24.58 2°51.673 -999 -999 -999 -999
2012-01-24 07:07:40 51°24.596 2°51.674 -999 -999 -999 -999
2012-01-24 07:07:45 51°24.612 2°51.674 -999 -999 -999 -999
2012-01-24 07:07:50 51°24.628 2°51.675 -999 -999 -999 -999
2012-01-24 07:07:54 51°24.641 2°51.675 -999 -999 -999 -999
2012-01-24 07:08:00 51°24.661 2°51.677 -999 -999 -999 -999
2012-01-24 07:08:05 51°24.677 2°51.679 -999 -999 -999 -999
2012-01-24 07:08:10 51°24.693 2°51.681 -999 -999 -999 -999
2012-01-24 07:08:15 51°24.709 2°51.684 -999 -999 -999 -999
2012-01-24 07:08:20 51°24.724 2°51.685 -999 -999 -999 -999
2012-01-24 07:08:25 51°24.74 2°51.687 -999 -999 -999 -999
2012-01-24 07:08:30 51°24.756 2°51.689 -999 -999 -999 -999
2012-01-24 07:08:35 51°24.773 2°51.691 -999 -999 -999 -999
2012-01-24 07:08:39 51°24.785 2°51.693 -999 -999 -999 -999
2012-01-24 07:08:45 51°24.804 2°51.696 -999 -999 -999 -999
2012-01-24 07:08:50 51°24.82 2°51.698 -999 -999 -999 -999
2012-01-24 07:08:55 51°24.837 2°51.699 -999 -999 -999 -999
2012-01-24 07:09:00 51°24.852 2°51.701 -999 -999 -999 -999
2012-01-24 07:09:05 51°24.869 2°51.702 -999 -999 -999 -999
2012-01-24 07:09:10 51°24.885 2°51.704 -999 -999 -999 -999
2012-01-24 07:09:15 51°24.901 2°51.705 -999 -999 -999 -999
2012-01-24 07:09:20 51°24.917 2°51.706 -999 -999 -999 -999
2012-01-24 07:09:25 51°24.933 2°51.707 -999 -999 -999 -999
2012-01-24 07:09:30 51°24.949 2°51.708 -999 -999 -999 -999
2012-01-24 07:09:35 51°24.966 2°51.708 -999 -999 -999 -999
2012-01-24 07:09:40 51°24.982 2°51.709 -999 -999 -999 -999
2012-01-24 07:09:45 51°24.998 2°51.708 -999 -999 -999 -999
2012-01-24 07:09:50 51°25.014 2°51.709 -999 -999 -999 -999
2012-01-24 07:09:55 51°25.03 2°51.708 -999 -999 -999 -999
2012-01-24 07:10:00 51°25.047 2°51.708 -999 -999 -999 -999
2012-01-24 07:10:05 51°25.063 2°51.707 -999 -999 -999 -999
2012-01-24 07:10:10 51°25.079 2°51.707 -999 -999 -999 -999
2012-01-24 07:10:14 51°25.092 2°51.706 -999 -999 -999 -999
2012-01-24 07:10:20 51°25.112 2°51.706 -999 -999 -999 -999
2012-01-24 07:10:25 51°25.128 2°51.706 -999 -999 -999 -999
2012-01-24 07:10:30 51°25.144 2°51.706 -999 -999 -999 -999
2012-01-24 07:10:34 51°25.156 2°51.707 -999 -999 -999 -999
2012-01-24 07:10:40 51°25.175 2°51.707 -999 -999 -999 -999
2012-01-24 07:10:45 51°25.191 2°51.707 -999 -999 -999 -999
2012-01-24 07:10:50 51°25.207 2°51.709 -999 -999 -999 -999
2012-01-24 07:10:54 51°25.219 2°51.71 -999 -999 -999 -999
2012-01-24 07:11:00 51°25.238 2°51.712 -999 -999 -999 -999
2012-01-24 07:11:05 51°25.254 2°51.714 -999 -999 -999 -999
2012-01-24 07:11:10 51°25.269 2°51.717 -999 -999 -999 -999
2012-01-24 07:11:15 51°25.284 2°51.72 -999 -999 -999 -999
2012-01-24 07:11:19 51°25.297 2°51.721 -999 -999 -999 -999
2012-01-24 07:11:25 51°25.315 2°51.726 -999 -999 -999 -999
2012-01-24 07:11:30 51°25.331 2°51.727 -999 -999 -999 -999
2012-01-24 07:11:35 51°25.346 2°51.731 -999 -999 -999 -999
2012-01-24 07:11:40 51°25.362 2°51.733 -999 -999 -999 -999
2012-01-24 07:11:45 51°25.377 2°51.735 -999 -999 -999 -999
2012-01-24 07:11:50 51°25.392 2°51.737 -999 -999 -999 -999
2012-01-24 07:11:55 51°25.408 2°51.739 -999 -999 -999 -999
2012-01-24 07:12:00 51°25.423 2°51.742 -999 -999 -999 -999
2012-01-24 07:12:05 51°25.439 2°51.743 -999 -999 -999 -999
2012-01-24 07:12:10 51°25.454 2°51.746 -999 -999 -999 -999
2012-01-24 07:12:15 51°25.47 2°51.748 -999 -999 -999 -999
2012-01-24 07:12:20 51°25.485 2°51.749 -999 -999 -999 -999
2012-01-24 07:12:25 51°25.501 2°51.751 -999 -999 -999 -999
2012-01-24 07:12:30 51°25.517 2°51.752 -999 -999 -999 -999
2012-01-24 07:12:34 51°25.529 2°51.753 -999 -999 -999 -999
2012-01-24 07:12:40 51°25.547 2°51.754 -999 -999 -999 -999
2012-01-24 07:12:45 51°25.563 2°51.755 -999 -999 -999 -999
2012-01-24 07:12:50 51°25.578 2°51.756 -999 -999 -999 -999
2012-01-24 07:12:54 51°25.59 2°51.756 -999 -999 -999 -999
2012-01-24 07:13:00 51°25.609 2°51.756 -999 -999 -999 -999
2012-01-24 07:13:05 51°25.625 2°51.756 -999 -999 -999 -999
2012-01-24 07:13:10 51°25.641 2°51.756 -999 -999 -999 -999
2012-01-24 07:13:15 51°25.656 2°51.755 -999 -999 -999 -999
2012-01-24 07:13:19 51°25.669 2°51.755 -999 -999 -999 -999
2012-01-24 07:13:25 51°25.688 2°51.755 -999 -999 -999 -999
2012-01-24 07:13:30 51°25.703 2°51.755 -999 -999 -999 -999
2012-01-24 07:13:35 51°25.719 2°51.755 -999 -999 -999 -999
2012-01-24 07:13:40 51°25.735 2°51.756 -999 -999 -999 -999
2012-01-24 07:13:45 51°25.75 2°51.756 -999 -999 -999 -999
2012-01-24 07:13:50 51°25.766 2°51.756 -999 -999 -999 -999
2012-01-24 07:13:55 51°25.782 2°51.756 -999 -999 -999 -999
2012-01-24 07:14:00 51°25.797 2°51.756 -999 -999 -999 -999
2012-01-24 07:14:05 51°25.813 2°51.756 -999 -999 -999 -999
2012-01-24 07:14:10 51°25.829 2°51.756 -999 -999 -999 -999
2012-01-24 07:14:15 51°25.845 2°51.755 -999 -999 -999 -999
2012-01-24 07:14:20 51°25.861 2°51.755 -999 -999 -999 -999
2012-01-24 07:14:25 51°25.877 2°51.755 -999 -999 -999 -999
2012-01-24 07:14:30 51°25.893 2°51.755 -999 -999 -999 -999
2012-01-24 07:14:35 51°25.909 2°51.756 -999 -999 -999 -999
2012-01-24 07:14:40 51°25.925 2°51.756 -999 -999 -999 -999
2012-01-24 07:14:45 51°25.941 2°51.756 -999 -999 -999 -999
2012-01-24 07:14:50 51°25.956 2°51.758 -999 -999 -999 -999
2012-01-24 07:14:55 51°25.972 2°51.759 -999 -999 -999 -999
2012-01-24 07:15:00 51°25.988 2°51.761 -999 -999 -999 -999
2012-01-24 07:15:05 51°26.004 2°51.764 -999 -999 -999 -999
2012-01-24 07:15:10 51°26.02 2°51.765 -999 -999 -999 -999
2012-01-24 07:15:15 51°26.036 2°51.768 -999 -999 -999 -999
2012-01-24 07:15:20 51°26.052 2°51.77 -999 -999 -999 -999
2012-01-24 07:15:25 51°26.067 2°51.772 -999 -999 -999 -999
2012-01-24 07:15:30 51°26.084 2°51.775 -999 -999 -999 -999
2012-01-24 07:15:35 51°26.1 2°51.776 -999 -999 -999 -999
2012-01-24 07:15:40 51°26.115 2°51.779 -999 -999 -999 -999
2012-01-24 07:15:45 51°26.131 2°51.78 -999 -999 -999 -999
2012-01-24 07:15:50 51°26.147 2°51.783 -999 -999 -999 -999
2012-01-24 07:15:55 51°26.162 2°51.784 -999 -999 -999 -999
2012-01-24 07:15:59 51°26.175 2°51.786 -999 -999 -999 -999